[[{"header":{"parameterUnit":"m.s-1","parameterCategory":1,"la1":30.2991,"la2":30.254,"lo1":-89.0895,"lo2":-89.0444,"dy":0.0017,"dx":0.0017,"nx":28,"ny":28,"refTime":"2025-03-28T09:00:00:Z","depth":0,"parameterNumber":2,"parameterNumberName":"U-component_of_WINDS"},"data":[0,0,0,0,0,0,0,0,0,0,0,0,0,0,0,0,0,0,0,0,0,0,0,0,0,0,0,0,0,0,0,0,0,0,0,0,0,0,0,0,0,0,0,0,0,0,0,0,0,0,0,0,0,0,0,0,0,0,-7.7799,-7.78,0,-7.7936,-7.7937,-7.7939,-7.7932,-7.793,-7.7928,-7.7926,-7.8059,-7.8064,-7.8069,0,0,0,0,0,0,0,0,0,0,0,0,0,-7.7525,-7.753,-7.7799,-7.78,-7.7802,-7.7936,-7.7937,-7.7939,-7.7932,-7.7929,-7.7927,-7.7925,-7.8057,-7.8063,-7.807,0,0,0,0,0,0,0,0,0,0,0,0,0,-7.7651,-7.7532,-7.7798,-7.7815,-7.7818,-7.7935,-7.7938,-7.794,-7.7932,-7.7929,-7.7926,-7.7924,-7.8055,-7.8063,-7.8071,-7.8179,0,0,-7.8095,-7.8099,0,0,0,0,0,0,0,0,-7.7644,-7.7661,-7.7811,-7.7814,-7.7817,-7.7914,-7.789,-7.802,-7.7933,-7.7889,-7.7926,-7.7922,-7.8012,-7.8024,-7.8056,-7.8185,-7.8191,-7.8096,-7.8101,-7.8104,-7.8107,0,0,0,0,0,0,0,-7.7635,-7.7655,-7.7853,-7.7813,-7.7817,-7.7813,-7.7828,-7.7914,-7.7965,-7.7892,-7.7892,-7.7909,-7.8014,-7.8048,-7.8059,-7.8193,-7.8096,-7.8103,-7.8108,-7.8111,-7.8418,-7.8421,0,0,0,0,0,0,-7.7624,-7.7648,-7.7848,-7.7857,-7.7722,-7.7821,-7.7837,-7.7886,-7.7964,-7.7973,-7.7911,-7.7908,-7.8036,-7.8049,-7.8063,-7.8194,-7.8104,-7.8112,-7.8116,-7.8415,-7.8419,-7.8422,0,0,0,0,0,0,-7.7618,-7.7642,-7.7843,-7.7753,-7.7778,-7.7829,-7.7883,-7.789,-7.7924,-7.7979,-7.7987,-7.7937,-7.8034,-7.8052,-7.8151,-7.8199,-7.8115,-7.8123,-7.8411,-7.8416,-7.8421,-7.8458,0,0,0,0,0,0,-7.761,-7.764,-7.7682,-7.7754,-7.7783,-7.7929,-7.7886,-7.7895,-7.7939,-7.7936,-7.8005,-7.8014,-7.8033,-7.8139,-7.8159,-7.8208,-7.8129,-7.8407,-7.8413,-7.8419,-7.8452,-7.8463,-7.8473,0,0,0,0,0,-7.76,-7.7686,-7.7684,-7.7709,-7.7837,-7.7932,-7.7949,-7.7971,-7.7943,-7.7985,-7.8021,-7.8011,-7.8192,-7.8149,-7.8171,-7.8224,-7.8404,-7.8411,-7.8419,-7.8448,-7.8461,-7.8472,0,0,0,0,0,0,-7.7615,-7.7695,-7.7695,-7.7806,-7.7863,-7.7931,-7.7985,-7.7985,-7.8049,-7.8043,-7.8066,-7.8082,-7.8181,-7.8213,-7.8164,-7.8333,-7.8294,-7.8306,-7.8308,-7.8321,-7.8331,-7.832,-7.8136,0,0,0,0,0,-7.7632,-7.7705,-7.777,-7.7861,-7.789,-7.7933,-7.7975,-7.7988,-7.8047,-7.807,-7.8112,-7.8168,-7.8237,-7.8281,-7.8348,-7.8459,-7.8472,-7.8506,-7.8516,-7.8524,-7.8533,-7.8593,-7.8609,-7.8447,-7.8447,-7.8447,0,0,-7.7666,-7.7719,-7.7762,-7.7866,-7.7911,-7.7984,-7.7953,-7.8031,-7.8084,-7.8081,-7.8177,-7.8211,-7.8274,-7.8379,-7.8427,-7.8409,-7.8582,-7.8534,-7.854,-7.8545,-7.8603,-7.8618,-7.8631,-7.8452,-7.8451,-7.845,0,0,-7.7765,-7.7813,-7.7895,-7.7942,-7.8013,-7.8041,-7.8061,-7.813,-7.8153,-7.8251,-7.825,-7.8314,-7.8432,-7.8478,-7.8516,-7.8636,-7.8629,-7.8657,-7.8709,-7.8767,-7.878,-7.8791,-7.8832,-7.8846,-7.8667,-7.8667,-7.8667,0,-7.7797,-7.7908,-7.7936,-7.8015,-7.806,-7.8065,-7.8146,-7.819,-7.8278,-7.8308,-7.8287,-7.8438,-7.8481,-7.8596,-7.8626,-7.8658,-7.8679,-7.8647,-7.8776,-7.8788,-7.8799,-7.8838,-7.8853,-7.867,-7.867,-7.8669,-7.8669,0,-7.7944,-7.8021,-7.8078,-7.8166,-7.8218,-7.8298,-7.8336,-7.8385,-7.8395,-7.8425,-7.8524,-7.8577,-7.8655,-7.8684,-7.8693,-7.8801,-7.8787,-7.8772,-7.8731,-7.8816,-7.8853,-7.8869,-7.8674,-7.8673,-7.8672,-7.8671,0,0,-7.8051,-7.8156,-7.8176,-7.8216,-7.8296,-7.8355,-7.8436,-7.8515,-7.8555,-7.8617,-7.8683,-7.8786,-7.8772,-7.8816,-7.8831,-7.8883,-7.8972,-7.8861,-7.8862,-7.8877,-7.9093,-7.9102,-7.9119,-7.8971,-7.8974,-7.8976,-7.9087,0,-7.8155,-7.83,-7.8329,-7.8453,-7.8524,-7.8532,-7.8602,-7.8657,-7.8689,-7.8752,-7.8786,-7.8858,-7.8836,-7.8862,-7.8914,-7.895,-7.9015,-7.8944,-7.903,-7.9032,-7.901,-7.9138,-7.9148,-7.9249,-7.9101,-7.9104,-7.9106,0,-7.8296,-7.8364,-7.8496,-7.8568,-7.8599,-7.8661,-7.8736,-7.8798,-7.8861,-7.8881,-7.8932,-7.8942,-7.9024,-7.8984,-7.9097,-7.9047,-7.9085,-7.9108,-7.9113,-7.9118,-7.9071,-7.9144,-7.9282,-7.9296,-7.9129,-7.9127,-7.9126,0,-7.8358,-7.8482,-7.8578,-7.8612,-7.8699,-7.8743,-7.878,-7.8842,-7.8887,-7.8953,-7.8982,-7.9056,-7.9095,-7.9151,-7.918,-7.9149,-7.929,-7.9253,-7.9306,-7.9305,-7.9332,-7.9329,-7.9474,-7.9362,-7.9362,-7.9362,-7.9361,0,-7.8469,-7.8549,-7.8607,-7.8665,-7.8755,-7.8787,-7.8875,-7.8912,-7.8967,-7.9031,-7.9042,-7.9102,-7.9138,-7.9203,-7.9227,-7.9315,-7.9334,-7.935,-7.9354,-7.9347,-7.9344,-7.9369,-7.9361,-7.9366,-7.9365,-7.9364,-7.9363,0,-7.8551,-7.8594,-7.8698,-7.8773,-7.8794,-7.8856,-7.892,-7.8976,-7.9009,-7.9091,-7.9111,-7.9163,-7.924,-7.9276,-7.937,-7.9386,-7.9486,-7.9488,-7.9465,-7.9466,-7.9516,-7.951,-7.9679,-7.9702,-7.9578,-7.9579,-7.958,0,-7.8618,-7.868,-7.8763,-7.8809,-7.8849,-7.8921,-7.8969,-7.9004,-7.9053,-7.9132,-7.9178,-7.9256,-7.932,-7.9443,-7.9487,-7.956,-7.9561,-7.9615,-7.9571,-7.9562,-7.9558,-7.9553,-7.9558,-7.9621,-7.9623,-7.9624,-7.9625,0,-7.8731,-7.875,-7.882,-7.8898,-7.8955,-7.9017,-7.9078,-7.9114,-7.9159,-7.9213,-7.9294,-7.9344,-7.9442,-7.9519,-7.9595,-7.9632,-7.9635,-7.9639,-7.9655,-7.9646,-7.9629,-7.9636,-7.9483,-7.9634,-7.9633,-7.9632,-7.9632,-7.9631,-7.8806,-7.8862,-7.8929,-7.9007,-7.9057,-7.9115,-7.9171,-7.9213,-7.9282,-7.9366,-7.9383,-7.9468,-7.9531,-7.9634,-7.9674,-7.974,-7.9727,-7.975,-7.9755,-7.976,-7.9761,-7.9622,-7.9754,-7.9754,-7.9754,-7.9754,-7.9753,0,-7.8917,-7.8963,-7.9034,-7.912,-7.9181,-7.9184,-7.9252,-7.9301,-7.9377,-7.9437,-7.9501,-7.9593,-7.9669,-7.9721,-7.9797,-7.9839,-7.9843,-7.9858,-7.9853,-7.9861,-7.977,-7.9747,-7.9854,-7.9854,-7.9854,-7.9854,-7.9854,-7.9854,-7.8982,-7.9076,-7.9104,-7.9223,-7.9267,-7.9352,-7.939,-7.9443,-7.9491,-7.9594,-7.9658,-7.9693,-7.9749,-7.983,-7.9899,-7.9912,-7.9938,-7.9954,-7.9966,-7.9878,-7.9868,-7.9857,-7.9836,-7.996,-7.996,-8.0052,-8.0052,-8.0053]},{"header":{"parameterUnit":"m.s-1","parameterCategory":1,"la1":30.2991,"la2":30.254,"lo1":-89.0895,"lo2":-89.0444,"dy":0.0017,"dx":0.0017,"nx":28,"ny":28,"refTime":"2025-03-28T09:00:00:Z","depth":0,"parameterNumber":3,"parameterNumberName":"V-component_of_WINDS"},"data":[0,0,0,0,0,0,0,0,0,0,0,0,0,0,0,0,0,0,0,0,0,0,0,0,0,0,0,0,0,0,0,0,0,0,0,0,0,0,0,0,0,0,0,0,0,0,0,0,0,0,0,0,0,0,0,0,0,0,5.944,5.9441,0,5.9512,5.9513,5.9514,5.9523,5.9522,5.9522,5.9521,5.9588,5.9591,5.9593,0,0,0,0,0,0,0,0,0,0,0,0,0,5.9307,5.9309,5.944,5.9441,5.9442,5.9512,5.9513,5.9514,5.9523,5.9522,5.9522,5.9521,5.9588,5.9591,5.9593,0,0,0,0,0,0,0,0,0,0,0,0,0,5.937,5.931,5.944,5.9455,5.9457,5.9512,5.9513,5.9514,5.9523,5.9522,5.9521,5.952,5.9587,5.959,5.9594,5.9637,0,0,5.9605,5.9607,0,0,0,0,0,0,0,0,5.9366,5.9375,5.9452,5.9454,5.9457,5.9508,5.9491,5.9555,5.9524,5.9498,5.9521,5.952,5.9562,5.9568,5.9583,5.964,5.9643,5.9605,5.9608,5.9609,5.961,0,0,0,0,0,0,0,5.9362,5.9372,5.9468,5.9453,5.9456,5.9457,5.9465,5.9503,5.9535,5.95,5.9501,5.951,5.9563,5.958,5.9585,5.9644,5.9605,5.9608,5.9611,5.9612,5.9742,5.9743,0,0,0,0,0,0,5.9356,5.9368,5.9466,5.9471,5.9408,5.946,5.9469,5.9492,5.9534,5.954,5.9511,5.951,5.9574,5.9581,5.9587,5.9642,5.9609,5.9612,5.9615,5.974,5.9742,5.9743,0,0,0,0,0,0,5.9353,5.9364,5.9463,5.942,5.9433,5.9464,5.949,5.9494,5.9511,5.9542,5.9547,5.9522,5.9573,5.9582,5.9625,5.9644,5.9614,5.9617,5.9739,5.9741,5.9743,5.9751,0,0,0,0,0,0,5.9349,5.9363,5.938,5.942,5.9435,5.9501,5.9491,5.9496,5.9518,5.9518,5.9554,5.9559,5.9573,5.962,5.9629,5.9649,5.962,5.9737,5.974,5.9742,5.9749,5.9753,5.9756,0,0,0,0,0,5.9344,5.9378,5.9381,5.9393,5.9457,5.9502,5.9511,5.9528,5.9519,5.9537,5.9557,5.9558,5.9641,5.9624,5.9634,5.9656,5.9736,5.9739,5.9742,5.9747,5.9752,5.9756,0,0,0,0,0,0,5.9336,5.9383,5.9387,5.9435,5.9465,5.9504,5.9526,5.9532,5.9563,5.9561,5.9579,5.9587,5.963,5.9647,5.9628,5.9701,5.9688,5.9693,5.9688,5.9693,5.9696,5.9691,5.9623,0,0,0,0,0,5.9341,5.9375,5.9413,5.9452,5.9467,5.9494,5.9514,5.9526,5.9556,5.9568,5.9592,5.962,5.9653,5.9674,5.9705,5.9752,5.976,5.9771,5.9775,5.9778,5.9782,5.981,5.9816,5.9753,5.9753,5.9753,0,0,5.9349,5.9379,5.9399,5.9451,5.9476,5.951,5.9504,5.954,5.9566,5.9573,5.9617,5.9635,5.9668,5.9714,5.9735,5.9729,5.9801,5.9781,5.9783,5.9786,5.9813,5.9819,5.9824,5.9755,5.9754,5.9754,0,0,5.9382,5.9408,5.9444,5.947,5.9509,5.9527,5.9536,5.9575,5.9588,5.9633,5.9639,5.9669,5.9724,5.9749,5.9768,5.9814,5.9817,5.9824,5.9842,5.9869,5.9874,5.9879,5.9896,5.9902,5.9828,5.9828,5.9828,0,5.9387,5.9441,5.9461,5.9499,5.9522,5.9533,5.957,5.9593,5.9639,5.9654,5.9648,5.972,5.9742,5.9795,5.9807,5.9822,5.9833,5.982,5.9872,5.9877,5.9881,5.9898,5.9905,5.9828,5.9828,5.9828,5.9828,0,5.9446,5.9483,5.9508,5.9556,5.9582,5.9618,5.9644,5.9667,5.9677,5.9696,5.9742,5.977,5.9809,5.9822,5.983,5.9877,5.9872,5.9869,5.9856,5.9888,5.9904,5.9911,5.983,5.9829,5.9829,5.9829,0,0,5.9474,5.9536,5.9545,5.9568,5.9613,5.9641,5.9679,5.972,5.974,5.9772,5.9804,5.9852,5.985,5.9872,5.9883,5.9907,5.9944,5.9901,5.9902,5.9909,5.9999,6.0003,6.001,5.9946,5.9948,5.9949,5.9997,0,5.9514,5.9584,5.9605,5.9663,5.9699,5.9711,5.9744,5.9775,5.9794,5.9826,5.9846,5.9881,5.9875,5.9889,5.9913,5.9935,5.9963,5.9931,5.9976,5.9977,5.9969,6.0018,6.0021,6.0065,6.0003,6.0005,6.0005,0,5.9569,5.9606,5.9669,5.9712,5.9728,5.9757,5.9798,5.9828,5.9863,5.9876,5.9902,5.9912,5.9952,5.9937,5.9992,5.997,5.999,6.0003,6.0005,6.001,5.9994,6.0026,6.0079,6.0087,6.0015,6.0015,6.0014,0,5.9586,5.965,5.9697,5.9716,5.9767,5.9788,5.981,5.9844,5.9869,5.9903,5.9919,5.9957,5.9978,6.0006,6.0026,6.0013,6.008,6.0066,6.0091,6.0091,6.0104,6.0103,6.0163,6.0115,6.0115,6.0115,6.0115,0,5.9628,5.9666,5.9706,5.9735,5.9778,5.9802,5.9844,5.9866,5.9897,5.993,5.9942,5.9972,5.9996,6.0029,6.0044,6.0088,6.0097,6.0108,6.0112,6.0108,6.0106,6.0121,6.0118,6.0117,6.0116,6.0116,6.0116,0,5.9654,5.9682,5.9734,5.978,5.9792,5.9823,5.9861,5.9889,5.991,5.9951,5.9962,5.9994,6.0034,6.0057,6.0106,6.0117,6.0166,6.0167,6.0155,6.0157,6.0181,6.0179,6.0253,6.0264,6.0208,6.0208,6.0209,0,5.968,5.971,5.976,5.9785,5.9808,5.9846,5.9872,5.9897,5.9923,5.9967,5.999,6.0032,6.0066,6.013,6.0156,6.0194,6.0198,6.0221,6.0203,6.0199,6.02,6.0198,6.0202,6.0224,6.0224,6.0225,6.0225,0,5.9723,5.9737,5.9775,5.9819,5.985,5.9885,5.992,5.9938,5.9969,5.9997,6.004,6.0067,6.012,6.0161,6.0202,6.0223,6.0229,6.0231,6.0239,6.0235,6.0228,6.0234,6.0165,6.0229,6.0229,6.0228,6.0228,6.0228,5.9751,5.978,5.9821,5.9863,5.9893,5.9926,5.9956,5.9982,6.0019,6.0066,6.0077,6.0123,6.0158,6.0215,6.0237,6.0272,6.0268,6.0279,6.0282,6.0285,6.0287,6.0222,6.028,6.0279,6.0279,6.0279,6.0279,0,5.9796,5.9824,5.9864,5.9914,5.9948,5.9954,5.9993,6.002,6.0061,6.0095,6.013,6.018,6.0221,6.0252,6.0294,6.0316,6.032,6.0326,6.0325,6.033,6.0287,6.0277,6.0322,6.0322,6.0322,6.0322,6.0322,6.0322,5.9824,5.9874,5.9893,5.9958,5.9985,6.0032,6.0054,6.0084,6.0112,6.0169,6.0204,6.0225,6.0258,6.0303,6.034,6.0348,6.0363,6.0369,6.0378,6.0337,6.0333,6.0328,6.0319,6.0372,6.0372,6.0418,6.0418,6.0418]}]]